Regional Weather Roundup
Issued by NWS

Home | Current Version | Previous Version | Text Only | Print | Product List | Glossary Off
Versions: 1 2 3 4 5 6 7 8 9 10 11 12 13 14 15 16 17 18 19 20 21 22 23 24 25 26 27 28 29 30 31 32 33 34 35 36 37 38 39 40 41 42 43 44 45 46 47 48 49 50

000
ASUS43 KOAX 270010
RWRNE

WEATHER ROUNDUP FOR NEBRASKA
NATIONAL WEATHER SERVICE OMAHA NE
700 PM CDT TUE MAY 26 2015

NOTES: SATELLITE DATA IS BEING USED TO AUGMENT CLOUD COVER ABOVE
       12000 FEET.
       "FAIR" INDICATES FEW OR NO CLOUDS BELOW 12,000 FEET WITH NO
       SIGNIFICANT WEATHER AND/OR OBSTRUCTIONS TO VISIBILITY.

  * THESE STATIONS DO NOT REPORT WEATHER SUCH AS RAIN...SNOW OR FOG.

NEZ001>004-019>022-054>056-270100-
NEBRASKA PANHANDLE

CITY           SKY/WX    TMP DP  RH WIND       PRES   REMARKS
SCOTTSBLUFF    PTSUNNY   69  49  48 SE13      29.97S
6HR MIN TEMP:  64; 6HR MAX TEMP:  70;

ALLIANCE       MOSUNNY   63  48  58 SE8       29.98F
6HR MIN TEMP:  60; 6HR MAX TEMP:  68;

CHADRON        MOSUNNY   70  50  49 SE6       29.95F
6HR MIN TEMP:  63; 6HR MAX TEMP:  71;

KIMBALL          N/A    N/A N/A N/A MISG        N/A
SIDNEY         MOSUNNY   64  51  62 SE7       30.01S
6HR MIN TEMP:  57; 6HR MAX TEMP:  67; 6HR PCP:  0.10;

$$

NEZ057>060-069>072-079>082-270100-
SOUTHWEST NEBRASKA

CITY           SKY/WX    TMP DP  RH WIND       PRES   REMARKS
NORTH PLATTE   MOSUNNY   69  46  43 NE6       29.97F
6HR MIN TEMP:  66; 6HR MAX TEMP:  72;

IMPERIAL       SUNNY     69  48  47 CALM      29.98F
6HR MIN TEMP:  64; 6HR MAX TEMP:  71; 6HR PCP: TRACE;

LEXINGTON      MOSUNNY   69  50  49 N6        29.97R
MCCOOK         MOSUNNY   70  47  43 N6        29.97S
6HR MIN TEMP:  68; 6HR MAX TEMP:  74;

OGALLALA       PTSUNNY   69  47  46 CALM      29.98F
$$

NEZ005>010-023>029-035>040-094-270100-
NORTH CENTRAL NEBRASKA

CITY           SKY/WX    TMP DP  RH WIND       PRES   REMARKS
VALENTINE      MOSUNNY   73  45  36 W7        29.93F
6HR MIN TEMP:  68; 6HR MAX TEMP:  75;

AINSWORTH      MOSUNNY   71  46  39 NW6       29.94S
BROKEN BOW     SUNNY     70  48  45 NW7       29.95F
6HR MIN TEMP:  66; 6HR MAX TEMP:  71;

O`NEILL        PTSUNNY   68  54  60 W7        29.91S
ORD            MOSUNNY   68  52  56 NW5       29.93R
6HR MIN TEMP:  65; 6HR MAX TEMP:  70;

THEDFORD       PTSUNNY   71  46  41 CALM      29.97F
$$

NEZ041-046>049-061>064-073>077-083>087-270100-
SOUTH CENTRAL NEBRASKA

CITY           SKY/WX    TMP DP  RH WIND       PRES   REMARKS
GRAND ISLAND   MOSUNNY   69  50  50 N9        29.93S
6HR MIN TEMP:  61; 6HR MAX TEMP:  72;

AURORA         PTSUNNY   70  49  46 NW13G20   29.92S
HASTINGS       PTSUNNY   69  49  48 N10       29.94R
6HR MIN TEMP:  63; 6HR MAX TEMP:  71;

HEBRON         PTSUNNY   69  51  52 NW7       29.91F
HOLDREGE       PTSUNNY   69  45  42 N7        29.97R
KEARNEY *      PTSUNNY   70  46  43 N12       29.96R
YORK           PTSUNNY   68  52  56 N10       29.90S
$$

NEZ011>018-030>034-042>045-270100-
NORTHEAST NEBRASKA

CITY           SKY/WX    TMP DP  RH WIND       PRES   REMARKS
NORFOLK        MOSUNNY   70  52  52 N12       29.86F
6HR MIN TEMP:  59; 6HR MAX TEMP:  72; 6HR PCP: TRACE;

ALBION         MOSUNNY   68  52  55 NW12      29.90S
BLAIR          MOSUNNY   67  55  65 W7        29.85F
COLUMBUS *       N/A    N/A N/A N/A MISG        N/A
FREMONT        PTSUNNY   69  54  59 W3        29.86S
TEKAMAH        SUNNY     71  56  58 NW10      29.83F
6HR MIN TEMP:  63; 6HR MAX TEMP:  71; 6HR PCP: TRACE;

WAYNE          MOSUNNY   68  51  54 N12       29.85S
$$

NEZ050>053-065>068-078-088>093-270100-
SOUTHEAST NEBRASKA

CITY           SKY/WX    TMP DP  RH WIND       PRES   REMARKS
LINCOLN        MOSUNNY   71  54  54 W9        29.88F
6HR MIN TEMP:  66; 6HR MAX TEMP:  72;

OMAHA EPPLEY   PTSUNNY   68  57  68 W10       29.85F
6HR MIN TEMP:  65; 6HR MAX TEMP:  69; 6HR PCP:  0.22;

BEATRICE       MOSUNNY   69  54  58 W10       29.89S
FALLS CITY     MOSUNNY   73  58  59 W13       29.86R
6HR MIN TEMP:  69; 6HR MAX TEMP:  76; 6HR PCP:  0.04;

NEBRASKA CITY  MOSUNNY   66  56  69 NW7       29.87S
PLATTSMOUTH    PTSUNNY   67  56  68 NW9       29.86F
$$

NEZ044-045-051>053-067-270100-
OMAHA AREA

CITY           SKY/WX    TMP DP  RH WIND       PRES   REMARKS
OMAHA EPPLEY   PTSUNNY   68  57  68 W10       29.85F
6HR MIN TEMP:  65; 6HR MAX TEMP:  69; 6HR PCP:  0.22;

BLAIR          MOSUNNY   67  55  65 W7        29.85F
FREMONT        PTSUNNY   69  54  59 W3        29.86S
MILLARD        MOSUNNY   68  57  66 W9        29.86S
OFFUTT AFB     SUNNY     69  57  65 W10       29.85S
PLATTSMOUTH    PTSUNNY   67  56  68 NW9       29.86F
WAHOO          FAIR      69  55  60 NW9       29.86F
$$


USA.gov is the U.S. government's official web portal to all federal, state and local government web resources and services.